Regional Weather Roundup
Issued by NWS

Current Version | Previous Version | Graphics & Text | Print | Product List | Glossary On
Versions: 1 2 3 4 5 6 7 8 9 10 11 12 13 14 15 16 17 18 19 20 21 22 23 24 25 26 27 28 29 30 31 32 33 34 35 36 37 38 39 40 41 42 43 44 45 46 47 48 49 50
000
ASUS42 KFFC 050003
RWRGA
WEATHER ROUNDUP FOR GEORGIA
NATIONAL WEATHER SERVICE PEACHTREE CITY GA
700 PM EST MON MAR 04 2024

NOTE: "FAIR" INDICATES FEW OR NO CLOUDS BELOW 12,000 FEET WITH NO
SIGNIFICANT WEATHER AND/OR OBSTRUCTIONS TO VISIBILITY.

* = USE WITH CAUTION. THE STATIONS MARKED WITH AN ASTERISK MAY NOT
REPORT WEATHER SUCH AS PRECIPITATION, FOG, OR THUNDER AND ARE NOT
QUALITY CONTROLLED BY NWS.

THE REMARK "TC" DENOTES TEMPERATURE READING IN DEGREES CELSIUS.

GAZ001>058-050100-
NORTH GEORGIA

CITY           SKY/WX    TMP DP  RH WIND       PRES   REMARKS
ATLANTA        PTCLDY    61  55  81 E6        30.09S TC  16
6HR MIN TEMP:  61; 6HR MAX TEMP:  63;

ATHENS         CLOUDY    67  56  67 SE3       30.08S TC  19
6HR MIN TEMP:  67; 6HR MAX TEMP:  74;

CHAMBLEE       PTCLDY    59  55  87 S5        30.10R TC  15
6HR MIN TEMP:  59; 6HR MAX TEMP:  66;

PEACHTREE CITY CLOUDY    64  58  80 CALM      30.09S TC  18
6HR MIN TEMP:  64; 6HR MAX TEMP:  66;

ROME           PTCLDY    61  56  83 S5        30.05F TC  16
6HR MIN TEMP:  61; 6HR MAX TEMP:  67;

WEST ATLANTA   PTCLDY    61  56  83 E3        30.09S TC  16
6HR MIN TEMP:  60; 6HR MAX TEMP:  65;

GAINESVILLE    CLEAR     65  53  65 CALM      30.10S TC  18
6HR MIN TEMP:  65; 6HR MAX TEMP:  72;

CARTERSVILLE   CLEAR     63  57  82 SE7       30.08F TC  17


CITY           SKY/WX    TMP DP  RH WIND       PRES   REMARKS
DALTON*        PTCLDY    66  60  81 VRB3      30.05S TC  19
LAWRENCEVILLE* CLEAR     62  57  83 SW8       30.09S TC  17
MARIETTA       PTCLDY    61  55  82 S3        30.07S TC  16
KENNESAW*      PTCLDY    61  56  83 S3        30.10S TC  16
CANTON*        MOCLDY    65  55  69 CALM      30.09S TC  19
BLAIRSVILLE*   PTCLDY    63  51  64 S5        30.10S TC  17
$$

GAZ059>098-102>109-050100-
CENTRAL GEORGIA

CITY           SKY/WX    TMP DP  RH WIND       PRES   REMARKS
AUGUSTA-BUSH   PTCLDY    69  53  56 NE5       30.06R TC  21
6HR MIN TEMP:  68; 6HR MAX TEMP:  77;

AUGUSTA-DANIEL MOCLDY    71  54  54 N5        30.08S TC  22
6HR MIN TEMP:  71; 6HR MAX TEMP:  78;

COLUMBUS       PTCLDY    67  58  72 E8        30.04F TC  19
6HR MIN TEMP:  65; 6HR MAX TEMP:  71;

MACON          CLEAR     66  58  75 CALM      30.07S TC  19
6HR MIN TEMP:  66; 6HR MAX TEMP:  72;

ROBINS AFB     PTCLDY    69  57  67 CALM      30.05F TC  20


CITY           SKY/WX    TMP DP  RH WIND       PRES   REMARKS
LAGRANGE*      CLOUDY    64  57  77 E5        30.07S TC  18
SYLVANIA*      CLEAR     67  50  53 SE3       30.09R TC  20
MILLEDGEVILLE* CLEAR     64  61  88 CALM      30.07S TC  18
$$

GAZ099>101-110>166-050100-
SOUTH GEORGIA

CITY           SKY/WX    TMP DP  RH WIND       PRES   REMARKS
SAVANNAH       PTCLDY    67  55  65 SE9       30.08S TC  19
6HR MIN TEMP:  67; 6HR MAX TEMP:  75;

VALDOSTA       PTCLDY    72  61  68 E5        30.05R TC  22
6HR MIN TEMP:  72; 6HR MAX TEMP:  79;

ALMA           CLEAR     66  61  84 CALM      30.07R TC  19
6HR MIN TEMP:  66; 6HR MAX TEMP:  76;

ST SIMONS      FOG       59  59 100 E6        30.09S VSB<1/4 TC  15
FT STEWART     PTCLDY    66  64  93 SE7       30.05R TC  19
ALBANY         PTCLDY    68  58  70 E7        30.04F TC  20
HUNTER AFB     PTCLDY    67  59  74 S7        30.06R TC  19
MOODY AFB      PTCLDY    70  60  70 SE5       30.03F TC  21
BRUNSWICK      CLEAR     61  59  94 E3        30.10R TC  16


CITY           SKY/WX    TMP DP  RH WIND       PRES   REMARKS
BAINBRIDGE*    PTCLDY    69  60  73 SE6       30.03R TC  21
MOULTRIE*      PTCLDY    69  62  78 E6        30.05R TC  21
VIDALIA*       CLEAR     70  59  68 CALM      30.08R TC  21
WAYCROSS*      CLEAR     67  66  96 SE5       30.08R TC  19
DOUGLAS*       CLEAR     68  59  73 CALM      30.08S TC  20
$$



USA.gov is the U.S. government's official web portal to all federal, state and local government web resources and services.